Тацинский

Россия / Ростовская область     48°11′48″N   41°21′05″E
темп.,
°C
ветер,
м/с
пор.,
м/с
влажн.,
%
обл.,
%
осадки,
мм/ч
давл.,
гПа
погр.,
м
22 апреля, чт
чт2200:00+8юз48795 0.0 1020155
03:00+7юз34815 0.0 102156
06:00+7юз34845 0.0 102285
09:00+13з34625 0.0 1022580
12:00+16юз344853 0.1 10221789
15:00+16ююз3454100 0.2 1022539
18:00+15ю3362100 0.0 102264
21:00+13юв2259100 0.0 102220
23 апреля, пт
пт2300:00+11ююз4884100 0.8 1022216
03:00+10ю6891100 2.1 1022253
06:00+10ююв3688100 1.1 1023217
09:00+11ююв227473 1.2 1023378
12:00+15ююз235658 0.3 10211462
15:00+16зюз4548100 0.5 10191134
18:00+15юз3459100 0.0 101975
21:00+11юз35705 0.0 101968
24 апреля, сб
сб2400:00+10зюз3475100 0.0 101875
03:00+9юз3780100 0.2 1016175
06:00+10юз61175100 0.4 1016426
09:00+13юз810618 0.4 10151165
12:00+16юз91152100 0.6 10142035
15:00+10зсз797696 1.4 1016947
18:00+12з585761 0.0 10161314
21:00+10юз3758100 0.1 1017221
25 апреля, вс
вс2500:00+7з712685 0.0 1019506
03:00+5з5106773 0.0 1020457
06:00+3з410715 0.0 1021537
09:00+7зсз56615 0.0 10211048
12:00+11зсз464593 0.0 10211862
15:00+12зсз4437100 0.0 10202094
18:00+11з2347100 0.0 1020102
21:00+8юз2251100 0.0 102112
26 апреля, пн
пн2600:00+8зюз1150100 0.0 102010
03:00+7зсз0053100 0.0 101910
06:00+7всв0158100 0.0 101910
09:00+10юв1148100 0.0 1018424
12:00+12ю3241100 0.0 10171772
15:00+13юз444396 0.0 10161884
18:00+13ююз465097 0.0 1015524
21:00+8зсз6118127 0.1 1016465